Tracking 27107 objects as of 20-Mar-2023
HD Live streaming from Space Station
objects crossing your sky now

SL-16 DEB

Track SL-16 DEB now!
10-day predictions


NORAD ID: 22297
Int'l Code: 1992-093M
Perigee: 808.4 km
Apogee: 956.7 km
Inclination: 70.9 °
Period: 102.5 minutes
Semi major axis: 7253 km
RCS: 0.0355 m2 (small)
Launch date: December 25, 1992
Source: Commonwealth of Independent States (former USSR) (CIS)
Launch site: TYURATAM MISSILE AND SPACE COMPLEX (TTMTR)

Note: This is SATELLITE DEBRIS
Your satellite tracking list
Your tracking list is empty




NASA's NSSDC Master Catalog

Two Line Element Set (TLE):
1 22297U 92093M   23079.19084095  .00000381  00000-0  25244-3 0  9994
2 22297  70.9453 107.9944 0102278 216.6914 142.7172 14.05326554547099
Source of the keplerian elements: AFSPC